Location: �perlecques
(50.8057°N, 2.1521°E)
Time: 23:43:06
(UTC+00:00)

Cosmos 2221 - Pass Details

Date: 09 April 2020
Orbit: 592 x 617 km, 82.5° (Epoch: 24 May)

Event Time Altitude Azimuth Distance (km) Brightness Sun altitude
Exits shadow 21:46:38 26° 49° (NE) 1,220 4.1 -25.2°
Drops below altitude 10° 21:48:59 10° 26° (NNE) 1,982 5.5 -25.4°
Sets 21:51:20 0° 18° (NNE) 2,888 6.5 -25.6°
